Retour au catalogue

CZ-2D R/B

ActifSSO
NORAD 44548·ROCKET BODY·🇨🇳 China

Lancé Sep 25, 2019 depuis Jiuquan Satellite Launch Center

Loading…

Prochains Passages (prochaines 24 heures)

TLE

FraisSource: Space-Track

Époque: Sep 14, 2026, 21:03 UTC

1 44548U 19063B   26257.87723846  .00000139  00000-0  56671-4 0  9993
2 44548  98.3605 211.7821 0005988 240.4219 119.6374 14.40858408366471

Suivez CZ-2D R/B en temps réel avec AllMySat

Download on the App Store